Location: Unspecified
(43.4680°N, 87.1740°E)
Time: 21:46:43
(UTC+00:00)

ADEOS II - Pass Details

Date: 17 April 2021
Orbit: 798 x 801 km, 98.6° (Epoch: 11 May)

Event Time Altitude Azimuth Distance (km) Brightness Sun altitude
Rises 21:44:23 0° 0° (N) 3,318 5.8 -17.2°
Reaches altitude 10° 21:47:13 10° 346° (NNW) 2,382 4.8 -16.8°
Maximum altitude 21:51:06 22° 298° (WNW) 1,711 3.5 -16.2°
Enters shadow 21:52:43 19° 273° (W) 1,842 3.5 -16.0°
